�N����,����,�~����,�C��,���x,�C��,����,���ϕ���,�ő�u�ԕ���,�ő厞����,���˗�,�I�_���x,�n�����x,�ő啗���N��,DTYPE
"17/11/24","00:10",0.0,4.5,81.4,1010.9,318.7,2.7,4.5,317.4,0.00,1.6,8.9,"00:08:02",1
"17/11/24","00:20",0.0,4.6,79.0,1011.2,304.1,2.2,4.7,337.7,0.00,1.3,8.9,"00:13:04",1
"17/11/24","00:30",0.0,4.3,79.7,1010.9,279.1,1.5,2.0,271.9,0.00,1.1,8.8,"00:20:24",1
"17/11/24","00:40",0.0,4.4,79.0,1010.9,271.4,1.7,4.4,311.9,0.00,1.1,8.5,"00:35:12",1
"17/11/24","00:50",0.0,4.8,75.8,1011.2,261.8,2.1,4.4,300.9,0.00,0.9,9.0,"00:45:34",1
"17/11/24","01:00",0.0,4.9,74.3,1010.9,276.0,2.0,3.3,310.9,0.00,0.8,8.7,"00:55:02",1
"17/11/24","01:10",0.0,4.1,76.7,1010.9,319.8,1.8,2.7,305.8,0.00,0.4,8.8,"01:02:50",1
"17/11/24","01:20",0.0,3.3,82.3,1010.9,342.5,1.0,2.1,333.2,0.00,0.6,8.7,"01:13:36",1
"17/11/24","01:30",0.0,2.4,84.3,1010.9,310.7,2.0,3.1,330.2,0.00,0.1,8.6,"01:21:12",1
"17/11/24","01:40",0.0,2.0,88.4,1011.2,315.9,2.2,2.9,316.0,0.00,0.3,8.9,"01:36:24",1
"17/11/24","01:50",0.0,1.6,89.5,1010.9,301.0,1.7,2.6,319.8,0.00,0.1,8.4,"01:43:44",1
"17/11/24","02:00",0.0,1.7,92.5,1010.7,305.0,2.0,3.1,323.9,0.00,0.7,8.5,"01:55:04",1
"17/11/24","02:10",0.0,1.8,92.2,1010.9,302.1,1.5,2.9,325.6,0.00,0.7,8.6,"02:09:52",1
"17/11/24","02:20",0.0,1.6,92.5,1010.9,292.2,1.6,2.6,311.1,0.00,0.6,8.5,"02:10:32",1
"17/11/24","02:30",0.0,1.2,93.2,1010.9,308.1,1.8,2.8,320.3,0.00,0.3,8.3,"02:26:24",1
"17/11/24","02:40",0.0,0.9,94.1,1010.4,308.2,1.3,2.6,332.3,0.00,0.1,8.1,"02:38:00",1
"17/11/24","02:50",0.0,0.8,95.2,1010.7,307.5,1.1,2.0,318.2,0.00,0.2,8.2,"02:45:04",1
"17/11/24","03:00",0.0,0.5,94.9,1010.4,293.9,1.3,2.0,301.0,0.00,-0.2,8.4,"02:50:16",1
"17/11/24","03:10",0.0,0.5,96.9,1010.4,320.2,1.6,2.1,310.3,0.00,0.1,8.1,"03:07:04",1
"17/11/24","03:20",0.0,0.9,97.1,1010.4,326.3,1.8,2.7,323.7,0.00,0.5,8.3,"03:14:56",1
"17/11/24","03:30",0.0,0.6,96.2,1010.9,303.9,1.3,2.4,316.3,0.00,0.1,8.2,"03:21:04",1
"17/11/24","03:40",0.0,0.3,96.9,1010.7,318.6,0.8,2.1,316.0,0.00,-0.1,7.9,"03:39:36",1
"17/11/24","03:50",0.0,0.4,97.3,1010.9,310.9,1.2,2.4,331.5,0.00,0.1,8.0,"03:42:24",1
"17/11/24","04:00",0.0,0.9,97.4,1010.9,305.6,1.5,2.6,331.5,0.00,0.6,8.0,"03:57:04",1
"17/11/24","04:10",0.0,0.9,97.8,1011.2,291.3,1.0,2.0,303.1,0.00,0.6,7.9,"04:04:24",1
"17/11/24","04:20",0.0,1.4,97.4,1010.7,233.5,0.7,1.6,304.4,0.00,1.1,7.7,"04:15:52",1
"17/11/24","04:30",0.0,1.4,96.5,1010.7,289.1,1.5,2.8,319.1,0.00,0.9,7.7,"04:29:44",1
"17/11/24","04:40",0.0,1.9,96.1,1010.9,287.5,1.1,2.7,319.1,0.00,1.4,7.8,"04:32:16",1
"17/11/24","04:50",0.0,1.8,94.4,1010.7,273.2,1.3,2.7,299.7,0.00,1.0,7.7,"04:40:16",1
"17/11/24","05:00",0.0,1.6,93.3,1011.2,288.9,1.2,2.5,318.4,0.00,0.7,7.6,"04:52:08",1
"17/11/24","05:10",0.0,1.1,93.5,1011.2,283.9,0.7,1.6,312.9,0.00,0.2,7.7,"05:00:48",1
"17/11/24","05:20",0.0,1.1,94.7,1011.4,288.0,1.6,3.2,317.8,0.00,0.4,7.7,"05:11:20",1
"17/11/24","05:30",0.0,1.1,95.3,1011.4,329.6,2.0,2.8,348.6,0.00,0.5,7.7,"05:25:04",1
"17/11/24","05:40",0.0,0.9,94.9,1011.9,329.8,1.1,2.2,303.4,0.00,0.2,7.7,"05:34:32",1
"17/11/24","05:50",0.0,0.5,96.3,1011.6,278.5,1.1,1.4,276.8,0.00,0.0,7.7,"05:40:40",1
"17/11/24","06:00",0.0,0.6,97.0,1011.6,319.8,1.0,2.1,352.8,0.00,0.2,7.5,"05:58:32",1
"17/11/24","06:10",0.0,1.1,96.8,1012.1,302.5,1.6,3.5,335.1,0.00,0.7,7.5,"06:04:24",1
"17/11/24","06:20",0.0,1.2,96.8,1012.6,297.1,1.2,2.4,325.3,0.00,0.8,7.6,"06:13:20",1
"17/11/24","06:30",0.0,0.8,96.1,1012.8,317.1,1.6,2.6,322.1,0.00,0.3,7.5,"06:26:40",1
"17/11/24","06:40",0.0,0.6,96.6,1012.3,296.0,1.1,2.4,318.5,0.00,0.2,7.6,"06:34:32",1
"17/11/24","06:50",0.0,0.6,96.6,1012.8,315.7,1.0,1.8,320.8,0.00,0.2,7.5,"06:47:04",1
"17/11/24","07:00",0.0,0.9,97.7,1012.3,285.5,0.8,2.8,326.0,0.00,0.6,7.2,"06:53:28",1
"17/11/24","07:10",0.0,1.1,96.7,1012.3,278.7,1.2,2.4,307.8,0.00,0.7,7.3,"07:06:00",1
"17/11/24","07:20",0.0,1.5,96.7,1012.6,276.7,1.0,2.4,310.3,0.00,1.1,7.3,"07:19:52",1
"17/11/24","07:30",0.0,3.1,90.7,1012.8,231.6,0.6,1.7,327.9,0.00,1.8,7.6,"07:20:08",1
"17/11/24","07:40",0.0,3.3,89.0,1013.0,129.4,0.3,0.9,112.1,0.01,1.7,7.3,"07:32:48",1
"17/11/24","07:50",0.0,4.5,84.9,1013.5,293.4,0.7,2.0,318.8,0.02,2.2,7.3,"07:47:44",1
"17/11/24","08:00",0.0,5.6,79.1,1013.3,277.4,1.5,2.5,268.6,0.03,2.3,7.5,"07:56:08",1
"17/11/24","08:10",0.0,6.0,75.1,1014.0,289.8,2.0,4.1,338.3,0.05,2.0,7.2,"08:03:36",1
"17/11/24","08:20",0.0,6.1,73.1,1014.5,277.8,2.3,4.1,249.4,0.07,1.7,7.4,"08:14:56",1
"17/11/24","08:30",0.0,6.3,72.6,1014.9,267.8,2.6,4.7,236.3,0.10,1.8,7.5,"08:24:30",1
"17/11/24","08:40",0.0,6.6,72.6,1015.6,280.8,2.7,5.0,330.5,0.12,2.1,7.6,"08:35:40",1
"17/11/24","08:50",0.0,6.8,72.1,1015.6,282.8,2.7,5.4,308.6,0.15,2.2,7.7,"08:45:38",1
"17/11/24","09:00",0.0,7.0,70.3,1015.9,285.7,3.4,6.6,311.8,0.17,2.0,7.8,"08:58:04",1
"17/11/24","09:10",0.0,7.2,70.0,1016.1,300.2,2.8,5.5,325.0,0.20,2.1,7.9,"09:08:48",1
"17/11/24","09:20",0.0,7.3,68.5,1015.9,292.2,2.8,5.2,290.7,0.22,1.9,7.9,"09:18:24",1
"17/11/24","09:30",0.0,7.7,67.0,1016.1,291.0,2.7,5.8,327.1,0.24,2.0,7.8,"09:24:40",1
"17/11/24","09:40",0.0,7.9,64.2,1016.1,292.6,3.0,5.7,333.1,0.27,1.6,8.4,"09:36:16",1
"17/11/24","09:50",0.0,8.1,62.2,1016.1,284.0,2.6,5.1,307.9,0.29,1.3,8.2,"09:46:56",1
"17/11/24","10:00",0.0,8.4,60.7,1016.1,285.2,2.5,5.4,293.2,0.31,1.3,8.3,"09:51:20",1
"17/11/24","10:10",0.0,9.2,58.0,1015.9,293.6,2.1,4.5,325.2,0.32,1.4,8.7,"10:06:48",1
"17/11/24","10:20",0.0,9.2,56.4,1015.9,267.2,2.2,5.2,233.5,0.34,1.0,8.7,"10:10:48",1
"17/11/24","10:30",0.0,9.2,57.5,1015.4,287.5,2.1,5.2,328.5,0.36,1.3,8.9,"10:28:24",1
"17/11/24","10:40",0.0,9.6,57.4,1015.4,291.1,2.1,4.2,313.2,0.37,1.6,9.0,"10:35:52",1
"17/11/24","10:50",0.0,9.5,54.6,1015.2,300.6,1.6,3.2,328.2,0.38,0.9,9.2,"10:44:56",1
"17/11/24","11:00",0.0,10.1,52.7,1014.9,248.5,2.2,5.4,226.1,0.39,0.9,9.4,"10:56:40",1
"17/11/24","11:10",0.0,9.9,50.5,1014.9,253.6,2.7,5.0,235.2,0.40,0.1,9.7,"11:09:44",1
"17/11/24","11:20",0.0,10.1,48.8,1014.7,260.8,2.1,4.3,233.1,0.41,-0.1,9.7,"11:11:36",1
"17/11/24","11:30",0.0,10.8,49.0,1014.5,270.4,2.3,4.7,232.2,0.43,0.6,10.1,"11:28:32",1
"17/11/24","11:40",0.0,11.2,46.9,1014.5,272.6,2.3,6.0,238.2,0.48,0.3,10.0,"11:32:00",1
"17/11/24","11:50",0.0,11.2,49.0,1014.5,298.7,3.0,7.7,329.0,0.49,0.9,10.3,"11:47:12",1
"17/11/24","12:00",0.0,11.3,47.3,1014.2,260.1,2.7,6.0,228.5,0.42,0.5,10.2,"11:51:44",1
"17/11/24","12:10",0.0,11.2,50.3,1014.0,252.8,3.2,7.2,216.1,0.37,1.3,10.6,"12:00:40",1
"17/11/24","12:20",0.0,11.6,49.0,1014.0,295.0,2.5,4.7,335.4,0.43,1.3,10.7,"12:10:24",1
"17/11/24","12:30",0.0,10.4,50.5,1013.8,308.2,2.8,6.4,320.2,0.27,0.6,10.7,"12:20:40",1
"17/11/24","12:40",0.0,10.5,51.7,1013.5,260.2,2.5,5.7,227.2,0.25,1.0,10.8,"12:36:08",1
"17/11/24","12:50",0.0,10.9,50.0,1013.5,252.3,3.5,10.2,220.1,0.27,0.9,11.0,"12:44:16",1
"17/11/24","13:00",0.0,11.2,49.7,1013.3,257.9,2.1,3.5,300.2,0.38,1.1,11.0,"12:58:56",1
"17/11/24","13:10",0.0,11.0,49.9,1013.5,251.0,2.8,5.8,243.2,0.29,1.0,11.0,"13:03:28",1
"17/11/24","13:20",0.0,10.7,52.4,1013.5,275.2,2.3,4.0,238.7,0.19,1.4,11.0,"13:12:32",1
"17/11/24","13:30",0.0,10.6,53.5,1013.0,259.8,2.1,5.7,212.1,0.17,1.6,11.2,"13:23:28",1
"17/11/24","13:40",0.0,10.2,52.5,1013.3,278.7,2.3,4.8,275.2,0.12,1.0,11.1,"13:36:32",1
"17/11/24","13:50",0.0,10.3,53.6,1013.5,286.1,2.5,6.7,317.6,0.11,1.3,11.1,"13:45:52",1
"17/11/24","14:00",0.0,10.2,53.9,1013.3,293.2,3.0,6.6,340.2,0.09,1.3,11.2,"13:55:52",1
"17/11/24","14:10",0.0,10.3,53.7,1013.0,276.3,2.7,5.0,344.7,0.13,1.4,10.9,"14:02:28",1
"17/11/24","14:20",0.0,10.3,54.0,1013.0,285.2,2.6,4.7,331.2,0.14,1.4,11.1,"14:12:56",1
"17/11/24","14:30",0.0,10.5,53.0,1013.0,275.0,1.8,3.9,342.3,0.13,1.4,11.1,"14:29:36",1
"17/11/24","14:40",0.0,10.6,53.6,1013.5,291.3,2.0,4.2,321.7,0.09,1.6,11.1,"14:30:40",1
"17/11/24","14:50",0.0,10.4,53.4,1013.0,270.5,2.3,3.7,328.7,0.06,1.4,11.0,"14:40:32",1
"17/11/24","15:00",0.0,10.3,53.7,1013.0,266.1,3.4,7.2,215.8,0.06,1.4,11.1,"14:59:54",1
"17/11/24","15:10",0.0,10.1,52.9,1013.3,281.4,2.6,5.5,234.0,0.04,1.0,11.0,"15:00:08",1
"17/11/24","15:20",0.0,10.5,53.6,1013.5,273.6,2.5,4.5,245.7,0.06,1.5,10.8,"15:15:28",1
"17/11/24","15:30",0.0,10.5,53.3,1013.8,271.7,2.5,4.9,240.7,0.07,1.5,10.9,"15:24:32",1
"17/11/24","15:40",0.0,10.4,52.4,1013.5,294.3,3.0,6.7,324.8,0.02,1.1,10.8,"15:31:52",1
"17/11/24","15:50",0.0,10.6,52.6,1014.0,278.8,2.7,5.4,300.2,0.04,1.4,10.7,"15:42:32",1
"17/11/24","16:00",0.0,10.4,52.2,1013.8,272.6,2.7,5.5,284.3,0.05,1.1,10.6,"15:57:52",1
"17/11/24","16:10",0.0,10.2,54.3,1013.8,292.8,2.1,4.3,331.2,0.01,1.4,10.5,"16:06:48",1
"17/11/24","16:20",0.0,9.7,54.9,1014.0,284.9,2.0,3.5,267.5,0.00,1.1,10.7,"16:10:24",1
"17/11/24","16:30",0.0,9.6,55.2,1014.0,276.3,2.2,4.3,245.5,0.00,1.1,10.4,"16:24:16",1
"17/11/24","16:40",0.0,9.6,55.7,1014.2,275.6,2.8,6.4,304.6,0.00,1.2,10.2,"16:36:32",1
"17/11/24","16:50",0.0,9.3,56.5,1014.5,283.6,2.2,4.3,321.3,0.00,1.1,10.6,"16:43:20",1
"17/11/24","17:00",0.0,9.0,58.6,1014.2,296.9,1.8,3.5,263.7,0.00,1.4,10.4,"16:51:36",1
"17/11/24","17:10",0.0,8.4,61.6,1014.2,297.5,1.6,2.7,317.5,0.00,1.5,10.4,"17:09:28",1
"17/11/24","17:20",0.0,8.1,63.1,1014.5,291.6,1.6,2.4,303.0,0.00,1.5,10.2,"17:10:32",1
"17/11/24","17:30",0.0,7.7,64.9,1014.5,301.0,1.7,3.1,304.6,0.00,1.6,10.0,"17:23:28",1
"17/11/24","17:40",0.0,7.2,67.5,1014.5,294.9,1.7,2.7,311.9,0.00,1.6,10.0,"17:39:44",1
"17/11/24","17:50",0.0,6.8,70.0,1014.2,296.8,2.1,4.0,302.1,0.00,1.8,9.9,"17:45:36",1
"17/11/24","18:00",0.0,6.5,72.6,1014.9,289.8,2.0,2.7,309.3,0.00,2.0,9.9,"17:50:02",1
"17/11/24","18:10",0.0,6.1,73.5,1014.9,300.7,2.1,2.8,322.2,0.00,1.8,9.7,"18:07:52",1
"17/11/24","18:20",0.0,5.7,75.8,1014.7,293.4,2.1,3.4,319.6,0.00,1.8,9.7,"18:11:36",1
"17/11/24","18:30",0.0,5.8,77.3,1014.9,281.7,2.1,2.9,268.6,0.00,2.2,9.6,"18:20:02",1
"17/11/24","18:40",0.0,6.0,75.3,1014.7,288.9,2.2,2.9,275.9,0.00,2.0,9.5,"18:32:24",1
"17/11/24","18:50",0.0,5.8,75.7,1015.2,297.6,1.8,2.8,300.1,0.00,1.9,9.4,"18:48:48",1
"17/11/24","19:00",0.0,5.8,75.1,1015.2,293.6,2.0,2.7,325.7,0.00,1.8,9.3,"18:59:36",1
"17/11/24","19:10",0.0,5.9,73.9,1015.2,296.4,2.1,3.5,283.6,0.00,1.6,9.4,"19:06:04",1
"17/11/24","19:20",0.0,6.2,70.9,1015.2,282.1,2.0,3.5,268.1,0.00,1.4,9.4,"19:10:48",1
"17/11/24","19:30",0.0,6.2,70.4,1015.4,284.4,1.8,2.2,308.6,0.00,1.3,9.1,"19:26:00",1
"17/11/24","19:40",0.0,6.2,68.4,1015.6,293.2,2.1,2.9,313.6,0.00,0.9,9.1,"19:30:02",1
"17/11/24","19:50",0.0,6.5,66.6,1015.9,299.1,2.3,3.6,306.5,0.00,0.8,9.0,"19:44:34",1
"17/11/24","20:00",0.0,6.5,65.2,1016.1,284.5,2.1,3.2,311.4,0.00,0.5,9.1,"19:52:00",1
"17/11/24","20:10",0.0,6.7,64.3,1016.4,275.0,2.2,3.1,262.5,0.00,0.5,8.9,"20:07:36",1
"17/11/24","20:20",0.0,6.1,65.6,1016.4,278.4,1.7,2.9,247.6,0.00,0.2,8.8,"20:13:04",1
"17/11/24","20:30",0.0,5.2,69.8,1016.6,306.1,1.3,2.2,307.5,0.00,0.2,8.9,"20:22:10",1
"17/11/24","20:40",0.0,4.9,75.7,1016.4,336.0,0.7,1.8,321.4,0.00,1.0,8.7,"20:36:42",1
"17/11/24","20:50",0.0,4.6,77.7,1016.1,340.4,1.1,2.0,264.3,0.00,1.1,8.6,"20:44:10",1
"17/11/24","21:00",0.0,4.1,78.9,1016.1,308.6,1.1,1.9,288.5,0.00,0.8,8.7,"20:52:14",1
"17/11/24","21:10",0.0,3.7,81.8,1016.4,312.9,1.7,2.2,328.3,0.00,0.9,8.5,"21:07:56",1
"17/11/24","21:20",0.0,3.0,83.4,1016.4,300.0,1.5,2.7,321.9,0.00,0.5,8.7,"21:13:04",1
"17/11/24","21:30",0.0,2.6,87.6,1016.1,298.3,1.6,2.6,314.1,0.00,0.8,8.7,"21:29:04",1
"17/11/24","21:40",0.0,2.8,88.1,1016.1,307.4,2.1,3.1,324.7,0.00,1.1,8.4,"21:38:16",1
"17/11/24","21:50",0.0,2.6,87.0,1015.6,304.6,1.5,2.9,311.4,0.00,0.7,8.5,"21:46:00",1
"17/11/24","22:00",0.0,2.0,88.4,1016.1,278.5,1.3,2.1,310.0,0.00,0.3,8.4,"21:55:12",1
"17/11/24","22:10",0.0,2.1,92.2,1015.9,307.2,1.8,2.8,325.1,0.00,1.0,8.4,"22:08:00",1
"17/11/24","22:20",0.0,1.7,90.8,1016.1,281.9,1.5,2.1,323.9,0.00,0.4,8.2,"22:15:20",1
"17/11/24","22:30",0.0,1.5,91.4,1015.9,290.5,1.5,2.0,294.9,0.00,0.3,8.2,"22:23:44",1
"17/11/24","22:40",0.0,1.5,92.5,1015.6,303.1,1.7,3.1,306.4,0.00,0.5,8.1,"22:37:44",1
"17/11/24","22:50",0.0,1.8,92.2,1015.9,301.1,1.6,2.9,320.1,0.00,0.7,8.1,"22:44:00",1
"17/11/24","23:00",0.0,1.6,92.6,1015.9,303.7,2.1,3.2,318.8,0.00,0.6,7.9,"22:53:44",1
"17/11/24","23:10",0.0,1.6,92.9,1015.6,306.0,1.7,3.3,343.3,0.00,0.6,8.0,"23:08:08",1
"17/11/24","23:20",0.0,1.7,93.7,1015.6,309.0,1.3,2.5,307.1,0.00,0.8,8.0,"23:10:56",1
"17/11/24","23:30",0.0,2.1,93.6,1015.9,281.5,1.0,1.8,261.1,0.00,1.2,7.9,"23:27:20",1
"17/11/24","23:40",0.0,1.9,91.7,1015.9,286.4,1.2,1.9,314.3,0.00,0.7,7.9,"23:38:48",1
"17/11/24","23:50",0.0,1.9,91.5,1015.6,312.4,1.8,2.9,323.5,0.00,0.7,8.0,"23:46:00",1
"17/11/24","24:00",0.0,1.7,93.3,1015.9,294.1,1.5,2.1,296.2,0.00,0.8,7.8,"23:50:40",1
